Flag for Canada Weather past 2 weeks in Winnipeg, Manitoba, Canada

Now
60 °F

Refreshingly cool.


Feels Like: 60 °F
Forecast: 56 / 82 °F
Wind: 1 mph from North

Location: Winnipeg The Forks

Current Time: May 25, 2015 at 9:29:52 AM

Latest Report: May 25, 2015 at 8:00 AM


Visibility: N/A

Pressure: 29.81 "Hg

Humidity: 58%

Dew point: 45 °F

Location of WinnipegLocation

Historic Weather in Winnipeg — Graph

°F

Winnipeg temperature yesterday

Maximum temperature yesterday: 81 °F (at 4:00 PM)
Minimum temperature yesterday: 55 °F (at 5:00 AM)
Average temperature yesterday: 69 °F

Past Weeks' High & Low Weather Summary

 TemperatureHumidityPressure
High82 °F (May 23, 5:00 PM)100% (May 14, 12:00 PM)30.44 "Hg (May 14, 12:00 PM)
Low31 °F (May 18, 9:00 AM)14% (May 22, 5:00 PM)29.75 "Hg (May 17, 4:00 AM)
Average53 °F57%30.08 "Hg
* Reported May 10 8:00 AM — May 25 8:00 AM, Winnipeg, Weather by CustomWeather, © 2015

Note: Actual official high and low records may vary slightly from our data, if they occured in-between our weather recording intervals... More about our weather records

Advertising

Winnipeg weather history for previous 24 hours

 ConditionsComfort  
Time TempWeatherWind HumidityBarometerVisibility
8:00 AM
Mon, May 25
60 °FRefreshingly cool.1 mph58%29.81 "HgN/A
7:00 AM57 °FCool.3 mph60%29.82 "HgN/A
6:00 AM59 °FRefreshingly cool.3 mph46%29.82 "HgN/A
5:00 AM57 °FCool.2 mph62%29.82 "HgN/A
4:00 AM55 °FCool.No wind73%29.83 "HgN/A
3:00 AM56 °FCool.No wind73%29.84 "HgN/A
2:00 AM58 °FCool.1 mph67%29.86 "HgN/A
1:00 AM58 °FCool.No wind62%29.87 "HgN/A
12:00 AM64 °FMild.1 mph47%29.88 "HgN/A
11:00 PM
Sun, May 24
66 °FMild.2 mph43%29.88 "HgN/A
10:00 PM69 °FMild.1 mph37%29.88 "HgN/A
9:00 PM73 °FMild.2 mph35%29.88 "HgN/A
8:00 PM74 °FMild.2 mph37%29.88 "HgN/A
7:00 PM78 °FPleasantly warm.3 mph26%29.90 "HgN/A
6:00 PM80 °FPleasantly warm.5 mph23%29.91 "HgN/A
5:00 PM80 °FPleasantly warm.2 mph23%29.92 "HgN/A
4:00 PM81 °FPleasantly warm.3 mph23%29.93 "HgN/A
3:00 PM80 °FPleasantly warm.3 mph25%29.94 "HgN/A
2:00 PM79 °FPleasantly warm.5 mph27%29.96 "HgN/A
1:00 PM78 °FPleasantly warm.3 mph33%29.98 "HgN/A
12:00 PM74 °FMild.3 mph42%30.00 "HgN/A
11:00 AM71 °FMild.5 mph44%30.02 "HgN/A
10:00 AM69 °FMild.2 mph47%30.03 "HgN/A
9:00 AM63 °FMild.6 mph55%30.04 "HgN/A
Weather by CustomWeather, © 2015

See weather overviewHow to use our weather pages